Regional Weather Roundup
Issued by NWS

Home | Current Version | Previous Version | Graphics & Text | Print | Product List | Glossary On
Versions: 1 2 3 4 5 6 7 8 9 10 11 12 13 14 15 16 17 18 19 20 21 22 23 24 25 26 27 28 29 30 31 32 33 34 35 36 37 38 39 40 41 42 43 44 45 46 47 48 49 50
000
ASUS43 KFSD 210602
RWRSD

WEATHER ROUNDUP FOR SOUTH DAKOTA
NATIONAL WEATHER SERVICE SIOUX FALLS SD
1200 AM CST SUN DEC 21 2014

NOTE: "FAIR" INDICATES FEW OR NO CLOUDS BELOW 12,000 FEET WITH NO
SIGNIFICANT WEATHER AND/OR OBSTRUCTIONS TO VISIBILITY.


SDZ001>005-009-010-012>017-210700-
NORTHWEST AND NORTH CENTRAL SOUTH DAKOTA

CITY           SKY/WX    TMP DP  RH WIND       PRES   REMARKS
BUFFALO          N/A     32  24  72 SE6       29.68F WCI  26
FAITH            N/A     32  25  75 S9        29.78F WCI  24
MOBRIDGE       MOCLDY    27  24  89 SE8       29.78F WCI  19
$$

SDZ012>016-024>037-041>051-057-063-072>074-210700-
SOUTHWEST AND SOUTH CENTRAL SOUTH DAKOTA

CITY           SKY/WX    TMP DP  RH WIND       PRES   REMARKS
RAPID CTY ARPT MOCLDY    32  25  75 SE6       29.77F WCI  26
PIERRE         CLOUDY    25  22  88 S7        29.83F WCI  17
CUSTER         CLOUDY    31  24  75 W7        29.77F WCI  24
ELLSWORTH AFB  MOCLDY    34  26  72 S6        29.75F WCI  29
PHILIP         CLOUDY    30  24  78 E5        29.80F WCI  25
PINE RIDGE     CLOUDY    31  25  78 NW3       29.82F
WINNER         CLOUDY    35  26  69 SW8       29.86F WCI  29
$$

SDZ004>011-016>023-039-040-210700-
NORTHEAST SOUTH DAKOTA

CITY           SKY/WX    TMP DP  RH WIND       PRES   REMARKS
ABERDEEN       CLOUDY    30  28  92 S14       29.88F WCI  19
WATERTOWN      CLOUDY    29  28  96 S10       29.89F FOG     WCI  20
SISSETON         N/A     31  29  92 S10       29.90F WCI  22
$$

SDZ017-020-022-023-036>040-048>070-210700-
SOUTHEAST SOUTH DAKOTA

CITY           SKY/WX    TMP DP  RH WIND       PRES   REMARKS
SIOUX FALLS    CLOUDY    30  30 100 S15       29.95F FOG     WCI  19
HURON          CLOUDY    30  29  96 S12       29.90F WCI  20
MITCHELL       CLOUDY    32  31  96 S9        29.93F FOG     WCI  24
YANKTON        CLOUDY    32  30  93 S8        29.96F WCI  25
$$

ABBREVIATIONS USED IN REMARKS
   TC - TEMPERATURE IN CELSIUS
  WCI - WIND CHILL INDEX
   HX - HEAT INDEX
  VSB - VISIBILITY




USA.gov is the U.S. government's official web portal to all federal, state and local government web resources and services.